When you browse on this site, cookies collect data to enhance your experience and personalize the content and advertising you see.
Visit our Privacy Policy to learn more. By continuing to use the site, you agree to this use of cookies and data.
  • In United Kingdom
  • List of Countries
  • For 7 days
  • Water Temperature
  • Satellite Maps
  • Weather Map
  • Weather Widgets
  • user-avatar
    Login

    Hourly Weather Abertridwr

    Today, 26 May, Sunday

    Time Temperature Precipitation Wind Pressure Humidity
    00:00 +11°C° 0 mm 3 mps 751 mmHg 97%
    01:00 +12°C° 0 mm 3 mps 751 mmHg 97%
    02:00 +12°C° 0 mm 4 mps 751 mmHg 97%
    03:00 +12°C° 0 mm 4 mps 750 mmHg 97%
    04:00 +13°C° 0 mm 5 mps 750 mmHg 96%
    05:00 +13°C° 0 mm 5 mps 750 mmHg 95%
    06:00 +13°C° 0 mm 6 mps 749 mmHg 94%
    07:00 +14°C° 0 mm 6 mps 749 mmHg 94%
    08:00 +14°C° 0 mm 6 mps 749 mmHg 93%
    09:00 +14°C° 0 mm 7 mps 748 mmHg 93%
    10:00 +14°C° 0.3 mm 6 mps 748 mmHg 94%
    11:00 +14°C° 0.3 mm 6 mps 748 mmHg 95%
    12:00 +13°C° 0.3 mm 5 mps 748 mmHg 96%
    13:00 +14°C° 0.1 mm 5 mps 748 mmHg 93%
    14:00 +14°C° 0.1 mm 5 mps 748 mmHg 91%
    15:00 +14°C° 0.1 mm 5 mps 748 mmHg 88%
    16:00 +14°C° 0 mm 5 mps 748 mmHg 85%
    17:00 +14°C° 0 mm 5 mps 748 mmHg 81%
    18:00 +14°C° 0 mm 6 mps 748 mmHg 78%
    19:00 +13°C° 0 mm 5 mps 748 mmHg 81%
    20:00 +10°C° 0 mm 5 mps 748 mmHg 85%
    21:00 +10°C° 0 mm 4 mps 749 mmHg 89%
    22:00 +10°C° 0 mm 4 mps 748 mmHg 90%
    23:00 +8°C° 0 mm 4 mps 748 mmHg 91%

    Tomorrow, 27 May, Monday

    Time Temperature Precipitation Wind Pressure Humidity
    00:00 +8°C° 0 mm 4 mps 748 mmHg 92%
    01:00 +8°C° 0 mm 4 mps 748 mmHg 92%
    02:00 +8°C° 0 mm 3 mps 748 mmHg 92%
    03:00 +8°C° 0 mm 3 mps 748 mmHg 93%
    04:00 +8°C° 0 mm 4 mps 748 mmHg 91%
    05:00 +8°C° 0 mm 4 mps 748 mmHg 89%
    06:00 +10°C° 0 mm 4 mps 748 mmHg 88%
    07:00 +10°C° 0.1 mm 5 mps 748 mmHg 84%
    08:00 +12°C° 0.1 mm 5 mps 748 mmHg 81%
    09:00 +13°C° 0.1 mm 6 mps 748 mmHg 78%
    10:00 +13°C° 0.2 mm 6 mps 747 mmHg 77%
    11:00 +12°C° 0.2 mm 7 mps 747 mmHg 76%
    12:00 +12°C° 0.2 mm 7 mps 747 mmHg 75%
    13:00 +12°C° 0.2 mm 7 mps 747 mmHg 76%
    14:00 +12°C° 0.2 mm 7 mps 747 mmHg 78%
    15:00 +12°C° 0.2 mm 7 mps 746 mmHg 79%
    16:00 +12°C° 0.2 mm 7 mps 746 mmHg 80%
    17:00 +12°C° 0.2 mm 7 mps 746 mmHg 80%
    18:00 +11°C° 0.2 mm 7 mps 746 mmHg 80%
    19:00 +10°C° 0 mm 7 mps 746 mmHg 82%
    20:00 +9°C° 0 mm 6 mps 746 mmHg 84%
    21:00 +8°C° 0 mm 5 mps 746 mmHg 86%
    22:00 +8°C° 0 mm 5 mps 746 mmHg 86%
    23:00 +8°C° 0 mm 5 mps 746 mmHg 86%

    Day after tomorrow, 28 May, Tuesday

    Time Temperature Precipitation Wind Pressure Humidity
    00:00 +7°C° 0 mm 5 mps 746 mmHg 86%
    01:00 +7°C° 0 mm 6 mps 746 mmHg 87%
    02:00 +7°C° 0 mm 6 mps 745 mmHg 87%
    03:00 +7°C° 0 mm 6 mps 745 mmHg 88%
    04:00 +7°C° 0.2 mm 6 mps 745 mmHg 88%
    05:00 +7°C° 0.2 mm 6 mps 745 mmHg 89%
    06:00 +8°C° 0.2 mm 7 mps 745 mmHg 89%
    07:00 +9°C° 0.2 mm 7 mps 746 mmHg 87%
    08:00 +10°C° 0.2 mm 8 mps 746 mmHg 85%
    09:00 +11°C° 0.2 mm 8 mps 746 mmHg 83%
    10:00 +11°C° 0.2 mm 8 mps 747 mmHg 81%
    11:00 +11°C° 0.2 mm 8 mps 747 mmHg 79%
    12:00 +11°C° 0.2 mm 7 mps 748 mmHg 77%
    13:00 +12°C° 0.1 mm 7 mps 748 mmHg 76%
    14:00 +12°C° 0.1 mm 7 mps 748 mmHg 74%
    15:00 +12°C° 0.1 mm 7 mps 749 mmHg 72%
    16:00 +12°C° 0 mm 7 mps 749 mmHg 73%
    17:00 +13°C° 0 mm 6 mps 749 mmHg 74%
    18:00 +11°C° 0 mm 6 mps 750 mmHg 75%
    19:00 +10°C° 0 mm 5 mps 750 mmHg 80%
    20:00 +9°C° 0 mm 5 mps 751 mmHg 85%
    21:00 +7°C° 0 mm 4 mps 751 mmHg 89%
    22:00 +8°C° 0 mm 3 mps 752 mmHg 90%
    23:00 +8°C° 0 mm 3 mps 752 mmHg 90%

    29 May, Wednesday

    Time Temperature Precipitation Wind Pressure Humidity
    00:00 +8°C° 0 mm 2 mps 752 mmHg 90%
    01:00 +8°C° 0 mm 2 mps 752 mmHg 91%
    02:00 +7°C° 0 mm 2 mps 753 mmHg 92%
    03:00 +8°C° 0 mm 1 mps 753 mmHg 93%
    04:00 +8°C° 0 mm 1 mps 753 mmHg 91%
    05:00 +9°C° 0 mm 1 mps 753 mmHg 89%
    06:00 +9°C° 0 mm 1 mps 753 mmHg 87%
    07:00 +10°C° 0 mm 2 mps 753 mmHg 79%
    08:00 +12°C° 0 mm 2 mps 753 mmHg 71%
    09:00 +13°C° 0 mm 2 mps 753 mmHg 63%
    10:00 +13°C° 0 mm 3 mps 753 mmHg 65%
    11:00 +13°C° 0 mm 3 mps 753 mmHg 67%
    12:00 +14°C° 0 mm 4 mps 753 mmHg 69%
    13:00 +13°C° 0.1 mm 4 mps 753 mmHg 74%
    14:00 +13°C° 0.1 mm 3 mps 753 mmHg 79%
    15:00 +13°C° 0.1 mm 3 mps 752 mmHg 85%
    16:00 +13°C° 0.2 mm 4 mps 752 mmHg 88%
    17:00 +13°C° 0.2 mm 5 mps 752 mmHg 91%
    18:00 +13°C° 0.2 mm 6 mps 751 mmHg 94%
    19:00 +13°C° 0.1 mm 6 mps 751 mmHg 95%
    20:00 +13°C° 0.1 mm 6 mps 751 mmHg 95%
    21:00 +13°C° 0.1 mm 6 mps 751 mmHg 96%
    22:00 +13°C° 0.1 mm 6 mps 751 mmHg 96%
    23:00 +12°C° 0.1 mm 7 mps 751 mmHg 96%

    30 May, Thursday

    Time Temperature Precipitation Wind Pressure Humidity
    00:00 +12°C° 0.1 mm 7 mps 751 mmHg 96%
    01:00 +12°C° 0.1 mm 7 mps 751 mmHg 96%
    02:00 +12°C° 0.1 mm 7 mps 751 mmHg 96%
    03:00 +12°C° 0.1 mm 8 mps 751 mmHg 96%
    04:00 +12°C° 0.3 mm 8 mps 751 mmHg 96%
    05:00 +12°C° 0.3 mm 8 mps 751 mmHg 96%
    06:00 +12°C° 0.3 mm 8 mps 751 mmHg 96%
    07:00 +12°C° 0.1 mm 7 mps 751 mmHg 95%
    08:00 +14°C° 0.1 mm 7 mps 751 mmHg 95%
    09:00 +14°C° 0.1 mm 7 mps 752 mmHg 95%
    10:00 +14°C° 0.1 mm 7 mps 752 mmHg 94%
    11:00 +14°C° 0.1 mm 7 mps 752 mmHg 94%
    12:00 +15°C° 0.1 mm 7 mps 752 mmHg 93%
    13:00 +15°C° 0.1 mm 6 mps 752 mmHg 93%
    14:00 +15°C° 0.1 mm 6 mps 753 mmHg 93%
    15:00 +15°C° 0.1 mm 6 mps 753 mmHg 92%
    16:00 +15°C° 0.1 mm 6 mps 753 mmHg 92%
    17:00 +15°C° 0.1 mm 6 mps 753 mmHg 92%
    18:00 +15°C° 0.1 mm 6 mps 753 mmHg 92%
    19:00 +14°C° 0 mm 5 mps 754 mmHg 94%
    20:00 +14°C° 0 mm 4 mps 754 mmHg 95%
    21:00 +13°C° 0 mm 4 mps 755 mmHg 97%
    22:00 +13°C° 0 mm 3 mps 755 mmHg 97%
    23:00 +12°C° 0 mm 3 mps 756 mmHg 97%

    31 May, Friday

    Time Temperature Precipitation Wind Pressure Humidity
    00:00 +13°C° 0 mm 2 mps 756 mmHg 98%
    01:00 +13°C° 0 mm 2 mps 756 mmHg 97%
    02:00 +13°C° 0 mm 2 mps 756 mmHg 97%
    03:00 +13°C° 0 mm 1 mps 757 mmHg 96%
    04:00 +13°C° 0 mm 1 mps 757 mmHg 95%
    05:00 +13°C° 0 mm 1 mps 758 mmHg 94%
    06:00 +14°C° 0 mm 1 mps 758 mmHg 94%
    07:00 +14°C° 0 mm 1 mps 759 mmHg 93%
    08:00 +14°C° 0 mm 2 mps 759 mmHg 93%
    09:00 +15°C° 0 mm 2 mps 760 mmHg 92%
    10:00 +15°C° 0 mm 2 mps 760 mmHg 89%
    11:00 +16°C° 0 mm 2 mps 760 mmHg 86%
    12:00 +17°C° 0 mm 2 mps 760 mmHg 83%
    13:00 +18°C° 0.1 mm 3 mps 760 mmHg 82%
    14:00 +18°C° 0.1 mm 3 mps 761 mmHg 80%
    15:00 +19°C° 0.1 mm 3 mps 761 mmHg 78%
    16:00 +18°C° 0.1 mm 3 mps 761 mmHg 83%
    17:00 +17°C° 0.1 mm 3 mps 761 mmHg 87%
    18:00 +17°C° 0.1 mm 3 mps 761 mmHg 92%
    19:00 +16°C° 0 mm 3 mps 761 mmHg 94%
    20:00 +14°C° 0 mm 3 mps 761 mmHg 95%
    21:00 +13°C° 0 mm 3 mps 761 mmHg 97%
    22:00 +13°C° 0 mm 3 mps 762 mmHg 97%
    23:00 +13°C° 0 mm 3 mps 762 mmHg 97%
    Show more